| time (UTC) | temp C | wind direction | speed KPH | gust KPH | rain 1hr cm | rain 24hr cm | rain mn cm | humidity % | barometer mb |
| 20260505080900 | 12 | 302 | 8.0 | 12.9 | 0.00 | 0.00 | 0.00 | 65 | 1019.2 |
| 20260505080355 | 12 | 320 | 12.9 | 14.5 | 0.00 | 0.00 | 0.00 | 64 | 1019.0 |
| 20260505075851 | 12 | 299 | 4.8 | 11.3 | 0.00 | 0.00 | 0.00 | 64 | 1019.3 |
| 20260505075348 | 12 | 301 | 11.3 | 17.7 | 0.00 | 0.00 | 0.00 | 62 | 1019.2 |
| 20260505074846 | 12 | 319 | 12.9 | 14.5 | 0.00 | 0.00 | 0.00 | 60 | 1019.6 |
| 20260505074343 | 13 | 267 | 9.7 | 16.1 | 0.00 | 0.00 | 0.00 | 59 | 1019.2 |
| 20260505073840 | 13 | 296 | 6.4 | 17.7 | 0.00 | 0.00 | 0.00 | 58 | 1019.3 |
| 20260505073338 | 13 | 286 | 6.4 | 16.1 | 0.00 | 0.00 | 0.00 | 56 | 1019.4 |
| 20260505072834 | 13 | 298 | 12.9 | 19.3 | 0.00 | 0.00 | 0.00 | 54 | 1019.4 |
| 20260505072331 | 13 | 289 | 9.7 | 11.3 | 0.00 | 0.00 | 0.00 | 53 | 1019.7 |
| 20260505071827 | 13 | 279 | 8.0 | 11.3 | 0.00 | 0.00 | 0.00 | 51 | 1019.1 |
| 20260505071323 | 13 | 276 | 4.8 | 8.0 | 0.00 | 0.00 | 0.00 | 48 | 1019.7 |
| 20260505070822 | 13 | 279 | 4.8 | 9.7 | 0.00 | 0.00 | 0.00 | 47 | 1019.6 |
| 20260505070318 | 13 | 283 | 4.8 | 9.7 | 0.00 | 0.00 | 0.00 | 47 | 1019.3 |
| 20260505065813 | 13 | 274 | 8.0 | 9.7 | 0.00 | 0.00 | 0.00 | 47 | 1019.3 |
| 20260505065310 | 13 | 287 | 11.3 | 11.3 | 0.00 | 0.00 | 0.00 | 47 | 1019.3 |
| 20260505064807 | 13 | 300 | 11.3 | 11.3 | 0.00 | 0.00 | 0.00 | 46 | 1019.7 |
| 20260505064304 | 13 | 301 | 8.0 | 12.9 | 0.00 | 0.00 | 0.00 | 45 | 1019.3 |
| 20260505063802 | 13 | 297 | 4.8 | 9.7 | 0.00 | 0.00 | 0.00 | 45 | 1019.6 |
| 20260505063258 | 13 | 277 | 8.0 | 9.7 | 0.00 | 0.00 | 0.00 | 45 | 1019.8 |
| 20260505062755 | 13 | 293 | 11.3 | 12.9 | 0.00 | 0.00 | 0.00 | 45 | 1019.8 |
| 20260505062252 | 13 | 261 | 6.4 | 11.3 | 0.00 | 0.00 | 0.00 | 45 | 1019.9 |
| 20260505061749 | 13 | 253 | 8.0 | 11.3 | 0.00 | 0.00 | 0.00 | 44 | 1019.8 |
| 20260505061247 | 13 | 276 | 6.4 | 9.7 | 0.00 | 0.00 | 0.00 | 44 | 1019.9 |
| 20260505060744 | 13 | 251 | 4.8 | 6.4 | 0.00 | 0.00 | 0.00 | 45 | 1019.4 |
| 20260505060241 | 13 | 264 | 3.2 | 4.8 | 0.00 | 0.00 | 0.00 | 44 | 1019.6 |
| 20260505055736 | 13 | 266 | 3.2 | 6.4 | 0.00 | 0.00 | 0.00 | 44 | 1019.4 |
| 20260505055233 | 13 | 255 | 4.8 | 9.7 | 0.00 | 0.00 | 0.00 | 44 | 1019.6 |
| 20260505054730 | 13 | 267 | 4.8 | 8.0 | 0.00 | 0.00 | 0.00 | 44 | 1019.3 |
| 20260505054228 | 13 | 291 | 4.8 | 11.3 | 0.00 | 0.00 | 0.00 | 44 | 1019.4 |
| 20260505053726 | 13 | 297 | 9.7 | 14.5 | 0.00 | 0.00 | 0.00 | 45 | 1019.9 |
| 20260505053222 | 13 | 289 | 11.3 | 14.5 | 0.00 | 0.00 | 0.00 | 45 | 1019.9 |
| 20260505052720 | 13 | 259 | 3.2 | 11.3 | 0.00 | 0.00 | 0.00 | 46 | 1020.0 |
| 20260505052216 | 13 | 276 | 6.4 | 11.3 | 0.00 | 0.00 | 0.00 | 45 | 1019.9 |
| 20260505051714 | 13 | 288 | 6.4 | 14.5 | 0.00 | 0.00 | 0.00 | 45 | 1019.9 |
| 20260505051212 | 13 | 287 | 12.9 | 16.1 | 0.00 | 0.00 | 0.00 | 44 | 1019.9 |
| 20260505050709 | 13 | 275 | 11.3 | 14.5 | 0.00 | 0.00 | 0.00 | 45 | 1019.8 |
| 20260505050207 | 13 | 264 | 11.3 | 17.7 | 0.00 | 0.00 | 0.00 | 45 | 1019.7 |
| 20260505041637 | 13 | 290 | 22.5 | 22.5 | 0.00 | 0.00 | 0.00 | 45 | 1019.3 |
| 20260505041134 | 13 | 303 | 25.7 | 25.7 | 0.00 | 0.00 | 0.00 | 45 | 1019.1 |
| 20260505040631 | 13 | 286 | 12.9 | 27.4 | 0.00 | 0.00 | 0.00 | 45 | 1019.8 |
| 20260505040128 | 13 | 281 | 16.1 | 24.1 | 0.00 | 0.00 | 0.00 | 45 | 1020.0 |
| 20260505035624 | 13 | 288 | 11.3 | 24.1 | 0.00 | 0.00 | 0.00 | 45 | 1019.9 |
| 20260505035121 | 13 | 265 | 11.3 | 25.7 | 0.00 | 0.00 | 0.00 | 44 | 1019.9 |
| 20260505034618 | 13 | 297 | 12.9 | 27.4 | 0.00 | 0.00 | 0.00 | 44 | 1019.9 |
| 20260505034114 | 14 | 293 | 24.1 | 32.2 | 0.00 | 0.00 | 0.00 | 43 | 1019.7 |
| 20260505033611 | 14 | 308 | 17.7 | 29.0 | 0.00 | 0.00 | 0.00 | 43 | 1019.7 |
| 20260505033110 | 14 | 272 | 29.0 | 32.2 | 0.00 | 0.00 | 0.00 | 43 | 1019.6 |
| 20260505032607 | 15 | 301 | 29.0 | 37.0 | 0.00 | 0.00 | 0.00 | 42 | 1019.3 |
| 20260505032103 | 15 | 280 | 14.5 | 19.3 | 0.00 | 0.00 | 0.00 | 42 | 1019.6 |
| 20260505031601 | 15 | 313 | 20.9 | 29.0 | 0.00 | 0.00 | 0.00 | 42 | 1019.0 |
| 20260505031057 | 15 | 288 | 17.7 | 25.7 | 0.00 | 0.00 | 0.00 | 40 | 1019.2 |
| 20260505030554 | 15 | 281 | 14.5 | 25.7 | 0.00 | 0.00 | 0.00 | 39 | 1019.1 |
| 20260505030050 | 15 | 293 | 14.5 | 22.5 | 0.00 | 0.00 | 0.00 | 38 | 1018.9 |
| 20260505025546 | 15 | 302 | 11.3 | 25.7 | 0.00 | 0.00 | 0.00 | 38 | 1018.6 |
| 20260505025045 | 16 | 297 | 17.7 | 27.4 | 0.00 | 0.00 | 0.00 | 37 | 1018.4 |
| 20260505024541 | 16 | 297 | 20.9 | 24.1 | 0.00 | 0.00 | 0.00 | 37 | 1018.6 |
| 20260505024038 | 16 | 271 | 14.5 | 30.6 | 0.00 | 0.00 | 0.00 | 36 | 1018.5 |
| 20260505023536 | 16 | 307 | 14.5 | 22.5 | 0.00 | 0.00 | 0.00 | 35 | 1018.5 |
| 20260505023033 | 16 | 284 | 12.9 | 20.9 | 0.00 | 0.00 | 0.00 | 34 | 1018.3 |
| 20260505022531 | 16 | 289 | 12.9 | 20.9 | 0.00 | 0.00 | 0.00 | 33 | 1018.2 |
| 20260505022028 | 17 | 297 | 9.7 | 22.5 | 0.00 | 0.00 | 0.00 | 32 | 1018.2 |
| 20260505021524 | 17 | 295 | 12.9 | 22.5 | 0.00 | 0.00 | 0.00 | 31 | 1018.0 |
| 20260505021020 | 17 | 288 | 14.5 | 27.4 | 0.00 | 0.00 | 0.00 | 31 | 1018.5 |
| 20260505020515 | 17 | 276 | 12.9 | 25.7 | 0.00 | 0.00 | 0.00 | 31 | 1018.2 |
| 20260505020013 | 17 | 279 | 11.3 | 24.1 | 0.00 | 0.00 | 0.00 | 30 | 1018.4 |
| 20260505015509 | 17 | 296 | 9.7 | 19.3 | 0.00 | 0.00 | 0.00 | 30 | 1018.3 |
| 20260505015006 | 18 | 283 | 12.9 | 20.9 | 0.00 | 0.00 | 0.00 | 29 | 1018.0 |
| 20260505014503 | 18 | 296 | 16.1 | 22.5 | 0.00 | 0.00 | 0.00 | 29 | 1018.2 |
| 20260505014001 | 18 | 271 | 12.9 | 27.4 | 0.00 | 0.00 | 0.00 | 29 | 1018.0 |
| 20260505013457 | 18 | 301 | 11.3 | 22.5 | 0.00 | 0.00 | 0.00 | 29 | 1017.8 |
| 20260505012954 | 18 | 269 | 20.9 | 25.7 | 0.00 | 0.00 | 0.00 | 28 | 1018.0 |
| 20260505012453 | 19 | 298 | 20.9 | 24.1 | 0.00 | 0.00 | 0.00 | 28 | 1017.9 |
| 20260505011949 | 20 | 283 | 8.0 | 35.4 | 0.00 | 0.00 | 0.00 | 28 | 1018.2 |
| 20260505011445 | 20 | 285 | 19.3 | 30.6 | 0.00 | 0.00 | 0.00 | 28 | 1018.2 |
| 20260505010942 | 20 | 311 | 17.7 | 27.4 | 0.00 | 0.00 | 0.00 | 28 | 1018.3 |
| 20260505010438 | 20 | 305 | 20.9 | 32.2 | 0.00 | 0.00 | 0.00 | 28 | 1018.0 |
| 20260505005934 | 20 | 314 | 29.0 | 33.8 | 0.00 | 0.00 | 0.00 | 27 | 1018.3 |
| 20260505005431 | 20 | 274 | 16.1 | 20.9 | 0.00 | 0.00 | 0.00 | 26 | 1018.3 |
| 20260505004929 | 21 | 212 | 14.5 | 19.3 | 0.00 | 0.00 | 0.00 | 25 | 1017.9 |
| 20260505004425 | 21 | 252 | 9.7 | 19.3 | 0.00 | 0.00 | 0.00 | 26 | 1018.2 |
| 20260505003922 | 21 | 229 | 14.5 | 19.3 | 0.00 | 0.00 | 0.00 | 26 | 1018.4 |
| 20260505003419 | 21 | 233 | 14.5 | 29.0 | 0.00 | 0.00 | 0.00 | 26 | 1018.3 |
| 20260505002915 | 21 | 209 | 8.0 | 25.7 | 0.00 | 0.00 | 0.00 | 26 | 1018.4 |
| 20260505002412 | 21 | 240 | 17.7 | 25.7 | 0.00 | 0.00 | 0.00 | 26 | 1018.3 |
| 20260505001910 | 21 | 247 | 12.9 | 32.2 | 0.00 | 0.00 | 0.00 | 26 | 1018.0 |
| 20260505001407 | 22 | 257 | 17.7 | 27.4 | 0.00 | 0.00 | 0.00 | 25 | 1018.0 |
| 20260505000904 | 21 | 242 | 16.1 | 35.4 | 0.00 | 0.00 | 0.00 | 24 | 1018.3 |
| 20260505000402 | 21 | 266 | 12.9 | 30.6 | 0.00 | 0.00 | 0.00 | 25 | 1018.4 |
| 20260504235859 | 21 | 228 | 14.5 | 27.4 | 0.00 | 0.00 | 0.00 | 25 | 1018.5 |
| 20260504235356 | 21 | 243 | 16.1 | 24.1 | 0.00 | 0.00 | 0.00 | 24 | 1018.3 |
| 20260504234852 | 21 | 234 | 20.9 | 29.0 | 0.00 | 0.00 | 0.00 | 24 | 1018.3 |
| 20260504234350 | 21 | 271 | 14.5 | 38.6 | 0.00 | 0.00 | 0.00 | 24 | 1018.2 |
| 20260504233846 | 21 | 205 | 9.7 | 17.7 | 0.00 | 0.00 | 0.00 | 23 | 1018.2 |
| 20260504233342 | 21 | 250 | 19.3 | 32.2 | 0.00 | 0.00 | 0.00 | 23 | 1018.4 |
| 20260504232839 | 21 | 235 | 8.0 | 27.4 | 0.00 | 0.00 | 0.00 | 23 | 1018.3 |
| 20260504232336 | 21 | 238 | 25.7 | 30.6 | 0.00 | 0.00 | 0.00 | 23 | 1018.4 |
| 20260504231833 | 21 | 275 | 17.7 | 22.5 | 0.00 | 0.00 | 0.00 | 22 | 1018.4 |
| 20260504231329 | 21 | 259 | 24.1 | 38.6 | 0.00 | 0.00 | 0.00 | 22 | 1018.4 |
| 20260504230825 | 21 | 240 | 16.1 | 24.1 | 0.00 | 0.00 | 0.00 | 21 | 1018.2 |
| 20260504230323 | 21 | 251 | 25.7 | 29.0 | 0.00 | 0.00 | 0.00 | 21 | 1018.0 |
| 20260504225822 | 21 | 265 | 32.2 | 32.2 | 0.00 | 0.00 | 0.00 | 21 | 1018.4 |
| 20260504225318 | 22 | 233 | 25.7 | 27.4 | 0.00 | 0.00 | 0.00 | 20 | 1018.2 |
| 20260504224815 | 22 | 223 | 22.5 | 29.0 | 0.00 | 0.00 | 0.00 | 20 | 1018.3 |
| 20260504224312 | 21 | 234 | 16.1 | 33.8 | 0.00 | 0.00 | 0.00 | 19 | 1018.4 |
| 20260504223809 | 21 | 248 | 24.1 | 32.2 | 0.00 | 0.00 | 0.00 | 19 | 1018.3 |
| 20260504223304 | 22 | 251 | 17.7 | 32.2 | 0.00 | 0.00 | 0.00 | 18 | 1018.3 |
| 20260504222801 | 22 | 232 | 29.0 | 38.6 | 0.00 | 0.00 | 0.00 | 19 | 1018.6 |
| 20260504222258 | 22 | 246 | 19.3 | 27.4 | 0.00 | 0.00 | 0.00 | 20 | 1018.4 |
| 20260504221756 | 22 | 235 | 16.1 | 24.1 | 0.00 | 0.00 | 0.00 | 21 | 1018.5 |
| 20260504221253 | 22 | 265 | 11.3 | 37.0 | 0.00 | 0.00 | 0.00 | 21 | 1018.6 |
| 20260504220749 | 22 | 211 | 11.3 | 37.0 | 0.00 | 0.00 | 0.00 | 21 | 1018.6 |
| 20260504220246 | 22 | 249 | 20.9 | 30.6 | 0.00 | 0.00 | 0.00 | 20 | 1018.4 |
| 20260504215744 | 22 | 228 | 24.1 | 35.4 | 0.00 | 0.00 | 0.00 | 21 | 1018.6 |
| 20260504215240 | 22 | 233 | 12.9 | 22.5 | 0.00 | 0.00 | 0.00 | 21 | 1018.5 |
| 20260504214736 | 22 | 230 | 9.7 | 22.5 | 0.00 | 0.00 | 0.00 | 21 | 1018.6 |
| 20260504214233 | 22 | 259 | 17.7 | 32.2 | 0.00 | 0.00 | 0.00 | 20 | 1018.9 |
| 20260504213730 | 22 | 229 | 22.5 | 38.6 | 0.00 | 0.00 | 0.00 | 20 | 1018.6 |
| 20260504213226 | 22 | 217 | 16.1 | 33.8 | 0.00 | 0.00 | 0.00 | 19 | 1018.9 |
| 20260504212723 | 23 | 233 | 17.7 | 32.2 | 0.00 | 0.00 | 0.00 | 18 | 1018.7 |
| 20260504212220 | 23 | 264 | 19.3 | 27.4 | 0.00 | 0.00 | 0.00 | 18 | 1018.7 |
| 20260504211717 | 22 | 227 | 16.1 | 33.8 | 0.00 | 0.00 | 0.00 | 19 | 1018.5 |
| 20260504211213 | 23 | 208 | 14.5 | 25.7 | 0.00 | 0.00 | 0.00 | 20 | 1018.9 |
| 20260504210711 | 23 | 269 | 8.0 | 30.6 | 0.00 | 0.00 | 0.00 | 19 | 1018.6 |
| 20260504210208 | 23 | 246 | 17.7 | 25.7 | 0.00 | 0.00 | 0.00 | 20 | 1019.0 |
| 20260504205705 | 23 | 204 | 20.9 | 27.4 | 0.00 | 0.00 | 0.00 | 20 | 1019.0 |
| 20260504205202 | 23 | 199 | 16.1 | 29.0 | 0.00 | 0.00 | 0.00 | 21 | 1019.0 |
| 20260504204700 | 23 | 261 | 4.8 | 22.5 | 0.00 | 0.00 | 0.00 | 21 | 1019.0 |
| 20260504204153 | 23 | 153 | 14.5 | 17.7 | 0.00 | 0.00 | 0.00 | 20 | 1018.9 |
| 20260504203651 | 23 | 245 | 20.9 | 38.6 | 0.00 | 0.00 | 0.00 | 20 | 1018.9 |
| 20260504203148 | 23 | 184 | 11.3 | 30.6 | 0.00 | 0.00 | 0.00 | 21 | 1018.9 |
| 20260504202643 | 22 | 228 | 14.5 | 27.4 | 0.00 | 0.00 | 0.00 | 20 | 1019.0 |
| 20260504202140 | 23 | 258 | 6.4 | 9.7 | 0.00 | 0.00 | 0.00 | 20 | 1019.1 |
| 20260504201637 | 22 | 157 | 16.1 | 17.7 | 0.00 | 0.00 | 0.00 | 20 | 1019.3 |
| 20260504201135 | 22 | 225 | 9.7 | 27.4 | 0.00 | 0.00 | 0.00 | 21 | 1019.2 |
| 20260504200632 | 24 | 226 | 9.7 | 24.1 | 0.00 | 0.00 | 0.00 | 21 | 1019.2 |
| 20260504200128 | 24 | 201 | 11.3 | 16.1 | 0.00 | 0.00 | 0.00 | 23 | 1019.1 |
| 20260504195624 | 23 | 121 | 14.5 | 19.3 | 0.00 | 0.00 | 0.00 | 22 | 1019.1 |
| 20260504195121 | 22 | 178 | 3.2 | 20.9 | 0.00 | 0.00 | 0.00 | 23 | 1019.4 |
| 20260504194618 | 22 | 235 | 8.0 | 29.0 | 0.00 | 0.00 | 0.00 | 23 | 1019.3 |
| 20260504194114 | 22 | 155 | 8.0 | 20.9 | 0.00 | 0.00 | 0.00 | 22 | 1019.7 |
| 20260504193610 | 23 | 238 | 9.7 | 29.0 | 0.00 | 0.00 | 0.00 | 23 | 1019.3 |
| 20260504193109 | 23 | 191 | 4.8 | 12.9 | 0.00 | 0.00 | 0.00 | 24 | 1019.2 |
| 20260504192606 | 22 | 164 | 14.5 | 19.3 | 0.00 | 0.00 | 0.00 | 23 | 1019.4 |
| 20260504192104 | 22 | 140 | 12.9 | 19.3 | 0.00 | 0.00 | 0.00 | 24 | 1019.4 |
| 20260504191602 | 22 | 122 | 4.8 | 24.1 | 0.00 | 0.00 | 0.00 | 25 | 1019.4 |
| 20260504191058 | 22 | 182 | 19.3 | 24.1 | 0.00 | 0.00 | 0.00 | 25 | 1019.9 |
| 20260504190554 | 22 | 232 | 14.5 | 16.1 | 0.00 | 0.00 | 0.00 | 27 | 1019.9 |
| 20260504190050 | 21 | 170 | 17.7 | 20.9 | 0.00 | 0.00 | 0.00 | 29 | 1020.1 |
| 20260504185548 | 22 | 163 | 9.7 | 20.9 | 0.00 | 0.00 | 0.00 | 28 | 1020.1 |
| 20260504185044 | 22 | 327 | 3.2 | 16.1 | 0.00 | 0.00 | 0.00 | 27 | 1020.1 |
| 20260504184539 | 21 | 204 | 11.3 | 16.1 | 0.00 | 0.00 | 0.00 | 27 | 1020.3 |
| 20260504184035 | 21 | 205 | 19.3 | 24.1 | 0.00 | 0.00 | 0.00 | 27 | 1020.3 |
| 20260504183532 | 21 | 238 | 17.7 | 17.7 | 0.00 | 0.00 | 0.00 | 28 | 1020.1 |
| 20260504183031 | 21 | 229 | 11.3 | 19.3 | 0.00 | 0.00 | 0.00 | 30 | 1020.4 |
| 20260504182527 | 21 | 162 | 6.4 | 14.5 | 0.00 | 0.00 | 0.00 | 28 | 1020.4 |
| 20260504182025 | 21 | 166 | 9.7 | 22.5 | 0.00 | 0.00 | 0.00 | 27 | 1020.4 |
| 20260504181521 | 21 | 175 | 6.4 | 16.1 | 0.00 | 0.00 | 0.00 | 28 | 1020.3 |
| 20260504181020 | 21 | 198 | 3.2 | 14.5 | 0.00 | 0.00 | 0.00 | 31 | 1020.5 |
| 20260504180518 | 20 | 153 | 0.0 | 11.3 | 0.00 | 0.00 | 0.00 | 32 | 1020.5 |
| 20260504180017 | 20 | 139 | 9.7 | 14.5 | 0.00 | 0.00 | 0.00 | 31 | 1020.5 |
| 20260504175514 | 21 | 191 | 8.0 | 24.1 | 0.00 | 0.00 | 0.00 | 32 | 1020.7 |
| 20260504175011 | 21 | 145 | 12.9 | 17.7 | 0.00 | 0.00 | 0.00 | 32 | 1020.5 |
| 20260504174509 | 20 | 108 | 3.2 | 19.3 | 0.00 | 0.00 | 0.00 | 33 | 1020.7 |
| 20260504174005 | 20 | 157 | 9.7 | 19.3 | 0.00 | 0.00 | 0.00 | 33 | 1020.7 |
| 20260504173502 | 20 | 175 | 24.1 | 27.4 | 0.00 | 0.00 | 0.00 | 33 | 1020.8 |
| 20260504172959 | 19 | 152 | 9.7 | 20.9 | 0.00 | 0.00 | 0.00 | 35 | 1020.4 |
| 20260504172455 | 18 | 183 | 8.0 | 17.7 | 0.00 | 0.00 | 0.00 | 36 | 1020.5 |
| 20260504171952 | 19 | 156 | 6.4 | 24.1 | 0.00 | 0.00 | 0.00 | 35 | 1020.3 |
| 20260504171449 | 19 | 191 | 9.7 | 19.3 | 0.00 | 0.00 | 0.00 | 35 | 1020.6 |
| 20260504170946 | 20 | 233 | 8.0 | 12.9 | 0.00 | 0.00 | 0.00 | 35 | 1020.5 |
| 20260504170442 | 20 | 144 | 11.3 | 20.9 | 0.00 | 0.00 | 0.00 | 35 | 1020.5 |
| 20260504160402 | 18 | 155 | 8.0 | 19.3 | 0.00 | 0.00 | 0.00 | 37 | 1020.7 |
| 20260504150826 | 17 | 148 | 9.7 | 16.1 | 0.00 | 0.00 | 0.00 | 38 | 1020.5 |
| 20260504150322 | 17 | 157 | 6.4 | 14.5 | 0.00 | 0.00 | 0.00 | 38 | 1020.7 |
| 20260504141252 | 16 | 123 | 9.7 | 9.7 | 0.00 | 0.00 | 0.00 | 45 | 1020.5 |
| 20260504140749 | 15 | 259 | 4.8 | 11.3 | 0.00 | 0.00 | 0.00 | 46 | 1020.3 |
| 20260504140245 | 15 | 157 | 8.0 | 16.1 | 0.00 | 0.00 | 0.00 | 46 | 1020.6 |
| 20260504130713 | 15 | 186 | 4.8 | 8.0 | 0.00 | 0.00 | 0.00 | 46 | 1019.7 |
| 20260504130209 | 14 | 147 | 1.6 | 3.2 | 0.00 | 0.00 | 0.00 | 47 | 1019.4 |
| 20260504120133 | 12 | 239 | 1.6 | 4.8 | 0.00 | 0.00 | 0.00 | 54 | 1019.2 |
| 20260504110601 | 15 | 161 | 9.7 | 14.5 | 0.00 | 0.00 | 0.00 | 45 | 1018.9 |
| 20260504100522 | 16 | 191 | 3.2 | 12.9 | 0.00 | 0.00 | 0.00 | 42 | 1018.9 |
| 20260504081916 | 16 | 206 | 6.4 | 9.7 | 0.00 | 0.00 | 0.00 | 41 | 1019.6 |
| 20260504081413 | 16 | 246 | 4.8 | 8.0 | 0.00 | 0.00 | 0.00 | 41 | 1019.4 |